Tracking 17632 objects as of 2-May-2016
HD Live streaming from Space Station
objects crossing your sky now

NAVSTAR 37 (USA 117)

Track NAVSTAR 37 (USA 117) now!
NAVSTAR 37 (USA 117) is classified as:


NORAD ID: 23833
Int'l Code: 1996-019A
Perigee: 20,701.8 km
Apogee: 20,753.3 km
Inclination: 54.2 °
Period: 739.9 minutes
Semi major axis: 27098 km
RCS: 4.1981 m2 (large)
Launch date: March 28, 1996
Source: United States (US)
Launch site: AIR FORCE EASTERN TEST RANGE (AFETR)
PRN:
Your satellite tracking list
Your tracking list is empty





NASA's NSSDC Master Catalog

Two Line Element Set (TLE):
1 23833U 96019A   16122.37364588 -.00000051  00000-0  00000+0 0  9996
2 23833  54.2279  48.5459 0009517 290.4697 319.2473  1.94618345146915
Source of the keplerian elements: AFSPC

N2YO: 321